Regional Weather Roundup
Issued by NWS

Home | Current Version | Previous Version | Text Only | Print | Product List | Glossary Off
Versions: 1 2 3 4 5 6 7 8 9 10 11 12 13 14 15 16 17 18 19 20 21 22 23 24 25 26 27 28 29 30 31 32 33 34 35 36 37 38 39 40 41 42 43 44 45 46 47 48 49 50

000
ASUS43 KMKX 240959
RWRWI

WISCONSIN REGIONAL WEATHER ROUNDUP
NATIONAL WEATHER SERVICE MILWAUKEE/SULLIVAN WI
500 AM CDT THU JUL 24 2014

NOTE: "FAIR" INDICATES FEW OR NO CLOUDS BELOW 12,000 FEET WITH NO
SIGNIFICANT WEATHER AND/OR OBSTRUCTIONS TO VISIBILITY.

WIZ001-002-006>008-014>016-023>028-241100-
NORTHWEST WISCONSIN

CITY           SKY/WX    TMP DP  RH WIND       PRES   REMARKS
SUPERIOR ARPT  CLOUDY    51  50  99 CALM      30.19S FOG
ASHLAND        MOCLDY    51  50  96 S3        30.20R
HAYWARD        CLOUDY    55  52  89 CALM      30.20R
SIREN          CLOUDY    60  57  91 CALM      30.19R
RICE LAKE      CLOUDY    56  54  94 N3        30.21R
LADYSMITH      MOCLDY    55  52  89 E3        30.21S
EAU CLAIRE     NOT AVBL
MENOMONIE      MOSUNNY   58  56  94 CALM      30.19R
NEW RICHMOND   PTCLDY    57  56  94 CALM      30.19R
OSCEOLA        CLEAR     56  56  99 CALM      30.21R
$$

WIZ003>005-009-010-017-018-241100-
NORTH CENTRAL WISCONSIN

CITY           SKY/WX    TMP DP  RH WIND       PRES   REMARKS
WOODRUFF       PTCLDY    47  40  77 CALM      30.21R
RHINELANDER    CLEAR     47  47 100 CALM      30.22R FOG
EAGLE RIVER    FOG       43  43 100 CALM      30.20S VSB 1/4
LAND O LAKES   FOG       40  40 100 CALM      30.21S VSB 1
PHILLIPS       CLOUDY    50  49  96 CALM      30.21R
TOMAHAWK         N/A     42  41  97 CALM      30.21S FOG
MEDFORD        CLEAR     53  51  95 CALM      30.20S
MERRILL        FOG       46  46 100 CALM      30.21R VSB 1/2
$$

WIZ029-030-035-036-043>047-241100-
CENTRAL WISCONSIN

CITY           SKY/WX    TMP DP  RH WIND       PRES   REMARKS
WAUSAU         PTCLDY    55  53  93 E3        30.20R
MOSINEE        CLEAR     52  52 100 CALM      30.22S
MARSHFIELD     CLEAR     56  51  84 S6        30.20R
STEVENS POINT  CLEAR     49  48  97 CALM      30.21S
WAUPACA        CLEAR     54  52  94 CALM      30.21S
WAUTOMA        NOT AVBL
WISC RAPIDS    PTCLDY    53  51  93 CALM      30.22R
CAMP DOUGLAS   NOT AVBL
$$

WIZ011>013-019>022-031-037>040-048>050-241100-
NORTHEAST WISCONSIN

CITY           SKY/WX    TMP DP  RH WIND       PRES   REMARKS
ANTIGO         CLEAR     47  47  97 CALM      30.22R
STURGEON BAY   CLEAR     48  45  87 S3        30.19S
GREEN BAY      PTCLDY    52  50  93 W3        30.20R
MANITOWOC      NOT AVBL
APPLETON       MOCLDY    54  46  76 N3        30.20S
CLINTONVILLE   CLEAR     50  46  87 CALM      30.21R
OSHKOSH        MOCLDY    55  51  86 CALM      30.19S
$$

WIZ032>034-041-042-053>061-241100-
SOUTHWEST WISCONSIN

CITY           SKY/WX    TMP DP  RH WIND       PRES   REMARKS
LA CROSSE      CLEAR     60  57  89 E8        30.17R
SPARTA         CLEAR     48  48 100 CALM      30.19R
VIROQUA        FAIR      57  57 100 SE3       30.19S
BOSCOBEL       CLEAR     53  52  96 CALM      30.19S
PRAIRIE DU CHI CLEAR     59  54  82 E5        30.17S
PLATTEVILLE    FAIR      56  54  91 CALM      30.19S
$$

WIZ056-057-062-063-064-067-068-241100-
SOUTH CENTRAL WISCONSIN

CITY           SKY/WX    TMP DP  RH WIND       PRES   REMARKS
BARABOO/DELLS  PTCLDY    54  49  86 CALM      30.19S
LONE ROCK      NOT AVBL
WATERTOWN      CLEAR     53  51  93 CALM      30.19R
MADISON        MOCLDY    54  51  90 NE3       30.19S
MIDDLETON      PTSUNNY   54  51  92 CALM      30.20R
MONROE         CLEAR     54  50  87 N6        30.19R
JANESVILLE     CLEAR     50  46  87 CALM      30.18R
$$

WIZ051-052-058>065-066-070>072-241100-
SOUTHEAST WISCONSIN

CITY           SKY/WX    TMP DP  RH WIND       PRES   REMARKS
MILWAUKEE      CLEAR     56  50  80 NW6       30.17R
WAUKESHA       CLEAR     48  45  87 CALM      30.19R
MILWAUKEE/TIMM CLEAR     52  46  82 CALM      30.19R
RACINE         CLEAR     54  50  86 N3        30.18R
BURLINGTON     CLEAR     46  46 100 CALM      30.17S
KENOSHA        CLEAR     54  51  90 N7        30.17R
FOND DU LAC    CLOUDY    51  49  92 CALM      30.20R
SHEBOYGAN      MOCLDY    51  48  89 CALM      30.19R
WEST BEND      PTCLDY    50  46  87 CALM      30.19R
JUNEAU         CLEAR     50  47  90 NW3       30.21R
$$

LSZ147-162-241100-
LAKE SUPERIOR

STATION/POSITION TIME  TEMP    WIND        PRES    WAVE
                       AIR SEA DIR/SP/G            HT/PER
                 (UTC) (F)     (DEG/KT/KT) (MB)    (FT/S)
$$

LMZ867-665-643>646-241100-
LAKE MICHIGAN

STATION/POSITION TIME  TEMP    WIND        PRES    WAVE
                       AIR SEA DIR/SP/G            HT/PER
                 (UTC) (F)     (DEG/KT/KT) (MB)    (FT/S)
$$

TC  - TEMPERATURE IN CELSIUS
VSB - VISIBILITY IN STATUTE MILES
WCI - WIND CHILL INDEX
HX  - HEAT INDEX



USA.gov is the U.S. government's official web portal to all federal, state and local government web resources and services.